Terminal Aerodrome Forecast
Issued by NWS

Home | Current Version | Previous Version | Text Only | Print | Product List | Glossary On
Versions: 1 2 3 4 5 6 7 8 9 10 11 12 13 14 15 16 17 18 19 20 21 22 23 24
000
FTUS43 KLOT 212320
TAFDPA
TAF
KDPA 212320Z 2200/2224 18014G20KT P6SM FEW090 SCT120 BKN250
     FM220400 18012KT P6SM SCT060 BKN100 WS015/20045KT
     FM221400 19012G22KT P6SM VCSH SCT020 BKN040
      TEMPO 2216/2220 3SM -RA BR BKN013
     FM222100 34012G20KT 4SM -RA BR SCT008 OVC013=

USA.gov is the U.S. government's official web portal to all federal, state and local government web resources and services.